Date String (YYYY-MM-DD hh:mm:ss) UTC,Instrument flags,Ambient pressure (hPa),Sample flow (lpm),Bypass flow (lpm),Sample temperature (°C),Ambient temperature (°C),ASC tube jacket temperature (°C),LED temperature (°C),Box temperature (°C),Sample RH (%),Span deviation,Mass concentration (μg/m³),Mass concentration (μg/m³),Mass concentration (μg/m³)
DateTimeUTC,F1_M11,P_M11,Q1_M11,Q2_M11,T1_M11,T2_M11,T3_M11,T4_M11,T5_M11,U1_M11,ZSPAN_M11,X0_M11,X2_M11,X1_M11
2023-05-23 11:00:00,,0829.8,5.00,0.00,28.8,27.2,00.0,37.2,30.4,17.7,0003.2,0026.11,0017.83,0016.98
2023-05-23 11:01:00,,0829.8,5.00,0.00,28.8,27.2,00.0,37.2,30.4,17.8,0003.3,0026.53,0017.74,0016.94
2023-05-23 11:02:00,,0829.8,5.00,0.00,28.9,27.2,00.0,37.2,30.4,17.7,0003.2,0026.05,0017.71,0016.92
2023-05-23 11:03:00,,0829.8,5.00,0.00,28.9,27.2,00.0,37.2,30.4,17.8,0003.3,0025.78,0017.68,0016.90
2023-05-23 11:04:00,,0829.8,5.00,0.00,28.9,27.2,00.0,37.2,30.5,17.7,0003.5,0025.06,0017.55,0016.80
2023-05-23 11:05:00,,0829.8,5.01,0.00,28.9,27.2,00.0,37.2,30.5,17.7,0003.4,0024.74,0017.38,0016.66
2023-05-23 11:06:00,,0829.8,5.00,0.00,28.9,27.2,00.0,37.2,30.5,17.7,0003.5,0024.68,0017.26,0016.54
2023-05-23 11:07:00,,0829.7,5.00,0.00,28.9,27.2,00.0,37.2,30.5,17.7,0003.6,0024.48,0017.11,0016.39
2023-05-23 11:08:00,,0829.8,5.00,0.00,28.9,27.2,00.0,37.2,30.5,17.8,0003.6,0023.97,0016.96,0016.24
2023-05-23 11:09:00,,0829.8,5.00,0.00,28.9,27.2,00.0,37.2,30.5,17.9,0003.6,0023.77,0016.84,0016.12
2023-05-23 11:10:00,,0829.8,5.00,0.00,28.9,27.2,00.0,37.2,30.5,17.9,0003.7,0023.62,0016.71,0015.97
2023-05-23 11:11:00,,0829.8,5.00,0.00,28.9,27.2,00.0,37.2,30.5,17.9,0003.5,0023.32,0016.57,0015.85
2023-05-23 11:12:00,,0829.8,5.00,0.00,28.9,27.2,00.0,37.2,30.5,17.9,0003.5,0022.65,0016.49,0015.75
2023-05-23 11:13:00,,0829.8,5.00,0.00,28.9,27.2,00.0,37.2,30.5,17.9,0003.6,0022.39,0016.36,0015.62
2023-05-23 11:14:00,,0829.8,5.00,0.00,28.9,27.2,00.0,37.2,30.5,18.0,0003.6,0022.16,0016.19,0015.47
2023-05-23 11:15:00,,0829.9,5.00,0.00,28.9,27.2,00.0,37.2,30.5,18.0,0003.6,0021.97,0016.09,0015.35
2023-05-23 11:16:00,,0829.9,5.00,0.00,28.9,27.3,00.0,37.2,30.5,18.0,0003.5,0021.77,0016.01,0015.26
2023-05-23 11:17:00,,0830.0,5.00,0.00,28.9,27.3,00.0,37.2,30.5,17.8,0003.2,0021.63,0015.97,0015.22
2023-05-23 11:18:00,,0829.9,5.00,0.00,28.9,27.3,00.0,37.2,30.5,17.9,0003.1,0021.71,0015.98,0015.23
2023-05-23 11:19:00,,0829.9,5.00,0.00,28.9,27.3,00.0,37.2,30.5,17.8,0003.0,0021.79,0016.02,0015.25
2023-05-23 11:20:00,,0830.0,4.99,0.00,28.9,27.3,00.0,37.2,30.5,17.7,0002.9,0021.82,0016.01,0015.26
2023-05-23 11:21:00,,0829.9,5.00,0.00,28.9,27.3,00.0,37.3,30.5,17.9,0002.9,0021.92,0016.05,0015.29
2023-05-23 11:22:00,,0830.0,4.99,0.00,28.9,27.3,00.0,37.3,30.5,17.7,0003.0,0022.17,0016.14,0015.34
2023-05-23 11:23:00,,0830.0,5.00,0.00,29.0,27.3,00.0,37.3,30.5,17.9,0003.0,0022.52,0016.20,0015.41
2023-05-23 11:24:00,,0830.0,5.01,0.00,29.0,27.3,00.0,37.3,30.5,17.9,0003.0,0022.57,0016.22,0015.43
2023-05-23 11:25:00,,0830.0,5.00,0.00,29.0,27.3,00.0,37.3,30.5,17.9,0003.0,0022.61,0016.26,0015.45
2023-05-23 11:26:00,,0830.0,5.00,0.00,29.0,27.3,00.0,37.3,30.5,17.7,0002.9,0022.56,0016.28,0015.49
2023-05-23 11:27:00,,0830.0,5.00,0.00,29.0,27.3,00.0,37.3,30.6,17.7,0002.9,0022.66,0016.34,0015.54
2023-05-23 11:28:00,,0830.0,5.00,0.00,29.0,27.3,00.0,37.3,30.6,17.9,0002.9,0023.05,0016.40,0015.61
2023-05-23 11:29:00,,0830.0,5.00,0.00,29.0,27.3,00.0,37.3,30.6,17.9,0003.0,0023.48,0016.40,0015.62
2023-05-23 11:30:00,,0830.0,5.01,0.00,29.0,27.3,00.0,37.3,30.6,17.9,0003.2,0023.87,0016.39,0015.63
2023-05-23 11:31:00,,0830.0,5.00,0.00,29.0,27.3,00.0,37.3,30.6,17.9,0003.2,0023.74,0016.33,0015.58
2023-05-23 11:32:00,,0830.0,5.00,0.00,29.0,27.3,00.0,37.3,30.6,17.9,0003.1,0023.61,0016.29,0015.54
2023-05-23 11:33:00,,0830.0,5.00,0.00,29.0,27.3,00.0,37.3,30.6,17.9,0003.3,0023.52,0016.22,0015.50
2023-05-23 11:34:00,,0830.0,5.01,0.00,29.0,27.3,00.0,37.3,30.6,17.9,0003.2,0023.33,0016.23,0015.46
2023-05-23 11:35:00,,0830.0,5.00,0.00,29.0,27.3,00.0,37.3,30.6,17.9,0003.2,0023.26,0016.22,0015.46
2023-05-23 11:36:00,,0830.0,5.00,0.00,29.0,27.3,00.0,37.3,30.6,17.9,0003.2,0023.30,0016.25,0015.51
2023-05-23 11:37:00,,0830.0,5.00,0.00,29.0,27.3,00.0,37.3,30.6,17.9,0003.3,0023.31,0016.26,0015.53
2023-05-23 11:38:00,,0830.0,5.00,0.00,29.0,27.3,00.0,37.3,30.6,17.9,0003.6,0023.36,0016.31,0015.56
2023-05-23 11:39:00,,0830.0,5.00,0.00,29.0,27.3,00.0,37.3,30.6,18.1,0003.8,0023.27,0016.43,0015.62
2023-05-23 11:40:00,,0830.0,5.00,0.00,29.0,27.3,00.0,37.3,30.6,17.9,0003.7,0022.85,0016.50,0015.69
2023-05-23 11:41:00,,0830.0,5.00,0.00,29.0,27.3,00.0,37.3,30.6,18.1,0003.6,0022.44,0016.57,0015.74
2023-05-23 11:42:00,,0830.0,5.00,0.00,29.0,27.3,00.0,37.3,30.6,18.3,0003.7,0022.95,0016.70,0015.85
2023-05-23 11:43:00,,0830.0,5.00,0.00,29.0,27.2,00.0,37.3,30.5,18.3,0003.8,0023.23,0016.88,0016.04
2023-05-23 11:44:00,,0830.0,4.99,0.00,29.0,27.2,00.0,37.3,30.6,18.3,0003.8,0023.31,0017.03,0016.21
2023-05-23 11:45:00,,0830.0,5.00,0.00,29.0,27.2,00.0,37.3,30.6,18.0,0003.7,0023.25,0017.12,0016.34
2023-05-23 11:46:00,,0830.0,5.00,0.00,29.0,27.2,00.0,37.3,30.5,17.8,0003.8,0023.37,0017.22,0016.44
2023-05-23 11:47:00,,0830.0,5.00,0.00,29.0,27.2,00.0,37.3,30.5,17.8,0003.8,0023.50,0017.29,0016.50
2023-05-23 11:48:00,,0830.0,5.00,0.00,29.0,27.2,00.0,37.3,30.5,17.8,0003.8,0023.59,0017.38,0016.59
2023-05-23 11:49:00,,0830.0,5.00,0.00,28.9,27.2,00.0,37.3,30.5,17.8,0003.7,0023.58,0017.40,0016.65
2023-05-23 11:50:00,,0830.0,5.00,0.00,28.9,27.2,00.0,37.3,30.5,17.7,0003.6,0023.61,0017.35,0016.65
2023-05-23 11:51:00,,0830.1,5.01,0.00,28.9,27.2,00.0,37.3,30.5,17.6,0003.6,0023.70,0017.36,0016.68
2023-05-23 11:52:00,,0830.0,5.00,0.00,28.9,27.2,00.0,37.3,30.5,17.7,0003.7,0023.72,0017.39,0016.70
2023-05-23 11:53:00,,0830.0,5.00,0.00,28.9,27.1,00.0,37.3,30.5,17.7,0003.6,0023.42,0017.39,0016.71
2023-05-23 11:54:00,,0830.0,5.00,0.00,28.9,27.1,00.0,37.3,30.5,17.8,0003.4,0023.25,0017.31,0016.65
2023-05-23 11:55:00,,0830.0,5.01,0.00,28.9,27.1,00.0,37.3,30.5,17.8,0003.4,0023.23,0017.27,0016.59
2023-05-23 11:56:00,,0830.1,5.00,0.00,28.9,27.1,00.0,37.3,30.5,17.7,0003.5,0023.28,0017.27,0016.57
2023-05-23 11:57:00,,0830.0,4.99,0.00,28.9,27.1,00.0,37.3,30.5,17.7,0003.4,0023.35,0017.29,0016.59
2023-05-23 11:58:00,,0830.0,5.00,0.00,28.9,27.1,00.0,37.3,30.4,17.7,0003.4,0023.31,0017.29,0016.60
2023-05-23 11:59:00,,0830.0,4.99,0.00,28.9,27.1,00.0,37.3,30.5,17.6,0003.5,0023.33,0017.30,0016.60
